{"data":{"norad_id":60507,"intl_designator":"2024-149AR","name":"TANAGER-1","alt_names":[],"object_type":"PAYLOAD","status":"ACTIVE","operator":null,"country":"US","launch_date":"2024-08-16","launch_site_code":"AFWTR","launch_vehicle":null,"mission":null,"orbit_class":"UNKNOWN","rcs_meters":null,"size_class":null,"mass_kg":null,"dimensions":null,"purposes":["earth_obs"],"wikipedia_slug":null,"has_3d_model":false,"image_url":null,"decayed_at":null,"tle_current":{"epoch":"2026-09-19T12:24:15.236064Z","epoch_age_seconds":99682,"freshness":"FRESH","line1":"1 60507U 24149AR  26262.51684301  .00011486  00000+0  25441-3 0  9992","line2":"2 60507  97.2274 356.2353 0000867  22.9221 337.2066 15.43933904117598","mean_motion":15.43933904,"eccentricity":8.67e-5,"inclination_deg":97.2274,"raan_deg":356.2353,"arg_perigee_deg":22.9221,"mean_anomaly_deg":337.2066,"bstar":0.00025441,"rev_number":11759,"period_min":93.268241358602,"perigee_km":433.92172991361,"apogee_km":435.10304331725,"semimajor_km":6812.6493866154,"source":"CELESTRAK","updated_at":"2026-09-20T09:00:34.714435Z"}}}